Home   Weather   Timmins   Past weeks
Flag for Canada

Past Weather in Timmins, Ontario, Canada — Yesterday and Last 2 Weeks

Now
36 °F

Overcast.


Feels Like: 29 °F
Forecast: 40 / 29 °F
Wind: 8 mph from Northeast

Location: Timmins

Current Time: Apr 3, 2020 at 12:47:24 am

Latest Report: Apr 3, 2020 at 12:00 am


Visibility: 15 mi

Pressure: 30.20 "Hg

Humidity: 70%

Dew Point: 27 °F

Location of TimminsLocation

Past Weather in Timmins — Graph

°F

Timmins Temperature Yesterday

Maximum temperature yesterday: 39 °F (at 2:00 pm)
Minimum temperature yesterday: 21 °F (at 7:00 am)
Average temperature yesterday: 32 °F

High & Low Weather Summary for the Past Weeks

 TemperatureHumidityPressure
High52 °F (Mar 28, 3:00 pm)100% (Mar 19, 11:00 pm)30.73 "Hg (Mar 19, 11:00 pm)
Low-15 °F (Mar 21, 6:00 am)30% (Mar 21, 5:00 pm)29.62 "Hg (Mar 29, 3:00 pm)
Average27 °F73%30.11 "Hg
* Reported Mar 18 11:00 pm — Apr 2 11:00 pm, Timmins. Weather by CustomWeather, © 2020

Note: Actual official high and low records may vary slightly from our data, if they occured in-between our weather recording intervals... More about our weather records

Timmins Weather History for the Previous 24 Hours

Scroll right to see more
 ConditionsComfort  
Time TempWeatherWind HumidityBarometerVisibility
11:00 pm
Thu, Apr 2
36 °FOvercast.8 mph70%30.20 "Hg15 mi
10:00 pm36 °FPassing clouds.9 mph70%30.21 "Hg15 mi
9:00 pm36 °FOvercast.6 mph70%30.21 "Hg15 mi
7:00 pm37 °FPartly sunny.13 mph65%30.17 "Hg15 mi
6:00 pm39 °FPartly sunny.7 mph56%30.15 "Hg15 mi
5:00 pm39 °FScattered clouds.13 mph56%30.15 "Hg15 mi
4:00 pm39 °FPartly sunny.10 mph56%30.16 "Hg15 mi
3:00 pm39 °FPartly sunny.13 mph56%30.16 "Hg15 mi
2:00 pm39 °FOvercast.9 mph56%30.15 "Hg15 mi
1:00 pm37 °FPartly sunny.12 mph56%30.15 "Hg15 mi
12:00 pm37 °FPartly sunny.13 mph56%30.15 "Hg15 mi
11:00 am36 °FScattered clouds.12 mph60%30.14 "Hg15 mi
10:00 am32 °FPassing clouds.10 mph69%30.15 "Hg15 mi
9:00 am27 °FPassing clouds.7 mph80%30.15 "Hg15 mi
8:00 am23 °FPassing clouds.9 mph86%30.15 "Hg15 mi
7:00 am21 °FPassing clouds.9 mph93%30.13 "Hg15 mi
6:00 am23 °FPassing clouds.8 mph86%30.11 "Hg15 mi
5:00 am23 °FClear.6 mph86%30.10 "Hg15 mi
4:00 am25 °FClear.7 mph80%30.09 "Hg15 mi
3:00 am27 °FPassing clouds.8 mph74%30.09 "Hg15 mi
2:00 am28 °FPassing clouds.7 mph69%30.08 "Hg15 mi
1:00 am30 °FPassing clouds.6 mph64%30.07 "Hg15 mi
12:00 am32 °FClear.7 mph64%30.07 "Hg15 mi
Weather by CustomWeather, © 2020

See weather overview

Advertising